Flag for Russia Weather past 2 weeks in Kemerovo, Russia

Now
68 °F

More clouds than sun.


Feels Like: 68 °F
Forecast: 54 / 76 °F
Wind: 10 mph from North

Location: Kemerovo

Current Time: Aug 2, 2014 at 3:47:55 PM

Latest Report: Aug 2, 2014 at 3:00 PM


Visibility: N/A

Pressure: 30.04 "Hg

Humidity: 64%

Dew point: 55 °F

Location of KemerovoLocation

Historic Weather in Kemerovo — Graph

°F

Kemerovo temperature yesterday

Maximum temperature yesterday: 64 °F (at 5:00 PM)
Minimum temperature yesterday: 54 °F (at 5:00 AM)
Average temperature yesterday: 58 °F

Past Weeks' High & Low Weather Summary

 TemperatureHumidityPressure
High88 °F (Jul 21, 3:00 PM)100% (Jul 25, 3:00 AM)30.04 "Hg (Jul 25, 3:00 AM)
Low50 °F (Jul 26, 4:00 AM)33% (Jul 21, 7:00 PM)29.30 "Hg (Jul 29, 6:30 AM)
Average65 °F75%29.69 "Hg
* Reported Jul 18 2:00 PM — Aug 2 2:30 PM, Kemerovo, Weather by CustomWeather, © 2014

Note: Actual official high and low records may vary slightly from our data, if they occured in-between our weather recording intervals... More about our weather records

Advertising

Kemerovo weather history for previous 24 hours

 ConditionsComfort  
Time TempWeatherWind HumidityBarometerVisibility
2:30 PM
Aug 2
66 °FMore clouds than sun.10 mph68%30.04 "HgN/A
2:00 PM66 °FMore clouds than sun.8 mph68%30.04 "HgN/A
1:30 PM68 °FCloudy.10 mph60%30.04 "HgN/A
1:00 PM68 °FCloudy.8 mph60%30.04 "HgN/A
12:30 PM68 °FBroken clouds.13 mph60%30.04 "HgN/A
12:00 PM68 °FBroken clouds.13 mph60%30.01 "HgN/A
11:30 AM66 °FBroken clouds.10 mph64%30.01 "HgN/A
11:00 AM66 °FBroken clouds.17 mph64%30.01 "HgN/A
10:30 AM66 °FBroken clouds.8 mph73%30.01 "HgN/A
10:00 AM66 °FBroken clouds.8 mph73%30.01 "HgN/A
9:30 AM64 °FBroken clouds.10 mph78%30.01 "HgN/A
9:00 AM64 °FBroken clouds.8 mph78%30.01 "HgN/A
8:30 AM63 °FBroken clouds.8 mph88%30.01 "HgN/A
8:00 AM63 °FMore clouds than sun.8 mph88%30.01 "HgN/A
7:30 AM61 °FMore clouds than sun.8 mph94%30.01 "Hg4 mi
7:00 AM61 °FMore clouds than sun.8 mph94%30.01 "Hg4 mi
6:30 AM59 °FMore clouds than sun.8 mph100%29.98 "Hg4 mi
6:00 AM59 °FMostly cloudy.10 mph100%29.98 "Hg4 mi
5:30 AM59 °FMostly cloudy.6 mph100%29.98 "Hg4 mi
5:00 AM59 °FFog.6 mph100%29.98 "Hg2 mi
4:30 AM61 °FFog.6 mph94%29.98 "Hg1 mi
3:30 AM61 °FSprinkles. Mostly cloudy.3 mph94%29.98 "Hg4 mi
3:00 AM61 °FSprinkles. Mostly cloudy.3 mph94%29.98 "HgN/A
2:30 AM61 °FSprinkles. Mostly cloudy.8 mph94%29.98 "HgN/A
2:00 AM61 °FSprinkles. Mostly cloudy.8 mph94%29.98 "HgN/A
1:30 AM61 °FMostly cloudy.6 mph88%29.98 "HgN/A
1:00 AM61 °FMostly cloudy.6 mph88%29.98 "HgN/A
12:30 AM61 °FMostly cloudy.8 mph88%29.98 "HgN/A
12:00 AM61 °FMostly cloudy.13 mph88%29.98 "HgN/A
11:30 PM
Aug 1
59 °FMostly cloudy.13 mph94%29.98 "HgN/A
11:00 PM59 °FMostly cloudy.10 mph94%29.98 "HgN/A
10:30 PM59 °FSprinkles. Mostly cloudy.8 mph94%30.01 "HgN/A
10:00 PM59 °FMore clouds than sun.10 mph94%30.01 "HgN/A
9:30 PM59 °FMore clouds than sun.10 mph94%30.01 "HgN/A
9:00 PM59 °FMore clouds than sun.10 mph94%30.01 "HgN/A
8:30 PM61 °FMore clouds than sun.10 mph88%30.01 "HgN/A
8:00 PM61 °FMore clouds than sun.10 mph88%30.01 "HgN/A
7:30 PM61 °FSprinkles. More clouds than sun.10 mph94%30.01 "HgN/A
7:00 PM61 °FSprinkles. More clouds than sun.8 mph94%30.01 "HgN/A
6:30 PM63 °FSprinkles. More clouds than sun.3 mph83%30.01 "HgN/A
6:00 PM63 °FSprinkles. More clouds than sun.8 mph83%30.01 "HgN/A
5:30 PM64 °FSprinkles. More clouds than sun.10 mph78%30.01 "HgN/A
5:00 PM64 °FSprinkles. More clouds than sun.10 mph78%30.01 "HgN/A
4:30 PM63 °FMore clouds than sun.13 mph88%30.01 "HgN/A
4:00 PM63 °FMore clouds than sun.10 mph88%30.01 "HgN/A
3:30 PM61 °FMore clouds than sun.8 mph88%30.01 "HgN/A
3:00 PM61 °FSprinkles. More clouds than sun.8 mph88%30.01 "HgN/A
Weather by CustomWeather, © 2014

See weather overviewHow to use our weather pages